Time,TemperatureF,DewpointF,PressureIn,WindDirection,WindDirectionDegrees,WindSpeedMPH,WindSpeedGustMPH,Humidity,HourlyPrecipIn,Conditions,Clouds,dailyrainin,SoftwareType,DateUTC
2013-05-26 00:02:00,51.6,49.1,30.18,East,87,0.0,8.0,91,0.00,,OVC030,0.00,VWS V14.01,2013-05-26 05:02:00,
2013-05-26 00:07:00,51.6,49.1,30.19,ESE,113,9.0,9.0,91,0.00,,OVC030,0.00,VWS V14.01,2013-05-26 05:07:00,
2013-05-26 00:12:00,51.6,49.1,30.18,SE,136,4.0,14.0,91,0.00,,OVC030,0.00,VWS V14.01,2013-05-26 05:12:00,
2013-05-26 00:17:00,51.6,49.1,30.18,East,82,8.0,14.0,91,0.00,,OVC030,0.00,VWS V14.01,2013-05-26 05:17:00,
2013-05-26 00:22:00,51.6,49.1,30.18,ESE,121,4.0,14.0,91,0.00,,OVC030,0.00,VWS V14.01,2013-05-26 05:22:00,
2013-05-26 00:27:00,51.6,48.8,30.18,ESE,117,3.0,14.0,90,0.00,,OVC030,0.00,VWS V14.01,2013-05-26 05:27:00,
2013-05-26 00:32:00,51.6,49.1,30.18,ESE,105,7.0,14.0,91,0.00,,OVC030,0.00,VWS V14.01,2013-05-26 05:32:00,
2013-05-26 00:37:00,51.6,49.1,30.18,ESE,117,8.0,14.0,91,0.00,,OVC030,0.00,VWS V14.01,2013-05-26 05:37:00,
2013-05-26 00:42:00,51.6,49.1,30.18,ENE,73,4.0,14.0,91,0.00,,OVC030,0.00,VWS V14.01,2013-05-26 05:42:00,
2013-05-26 00:47:00,51.5,49.0,30.18,SE,145,6.0,14.0,91,0.00,,OVC030,0.00,VWS V14.01,2013-05-26 05:47:00,
2013-05-26 00:52:00,51.5,49.0,30.17,ENE,78,0.0,14.0,91,0.00,,OVC030,0.00,VWS V14.01,2013-05-26 05:52:00,
2013-05-26 00:57:00,51.4,48.9,30.18,East,100,9.0,14.0,91,0.00,,OVC030,0.00,VWS V14.01,2013-05-26 05:57:00,
2013-05-26 01:02:00,51.4,48.9,30.18,ESE,105,3.0,13.0,91,0.00,,OVC030,0.00,VWS V14.01,2013-05-26 06:02:00,
2013-05-26 01:07:00,51.3,48.8,30.17,ESE,108,0.0,13.0,91,0.00,,OVC030,0.00,VWS V14.01,2013-05-26 06:07:00,
2013-05-26 01:12:00,51.3,48.8,30.17,SE,127,3.0,13.0,91,0.00,,OVC030,0.00,VWS V14.01,2013-05-26 06:12:00,
2013-05-26 01:17:00,51.2,48.7,30.17,ESE,123,11.0,13.0,91,0.00,,OVC030,0.00,VWS V14.01,2013-05-26 06:17:00,
2013-05-26 01:22:00,51.2,48.7,30.17,East,96,0.0,13.0,91,0.00,,OVC030,0.00,VWS V14.01,2013-05-26 06:22:00,
2013-05-26 01:27:00,51.2,48.7,30.17,SE,141,1.0,13.0,91,0.00,,OVC030,0.00,VWS V14.01,2013-05-26 06:27:00,
2013-05-26 01:32:00,51.2,48.7,30.16,ESE,117,7.0,13.0,91,0.00,,OVC030,0.00,VWS V14.01,2013-05-26 06:32:00,
2013-05-26 01:38:00,51.2,48.7,30.17,East,79,7.0,13.0,91,0.00,,OVC030,0.00,VWS V14.01,2013-05-26 06:38:00,
2013-05-26 01:43:00,51.2,48.7,30.17,ESE,113,5.0,13.0,91,0.00,,OVC030,0.00,VWS V14.01,2013-05-26 06:43:00,
2013-05-26 01:48:00,51.2,48.7,30.16,ESE,123,0.0,13.0,91,0.00,,OVC030,0.00,VWS V14.01,2013-05-26 06:48:00,
2013-05-26 01:53:00,51.2,48.7,30.16,SE,126,0.0,13.0,91,0.00,,OVC030,0.00,VWS V14.01,2013-05-26 06:53:00,
2013-05-26 01:58:00,51.2,48.7,30.16,ESE,117,1.0,13.0,91,0.00,,OVC030,0.00,VWS V14.01,2013-05-26 06:58:00,
2013-05-26 02:03:00,51.2,48.7,30.17,East,84,2.0,7.0,91,0.00,,OVC030,0.00,VWS V14.01,2013-05-26 07:03:00,
2013-05-26 02:08:00,51.2,48.7,30.17,ESE,120,0.0,9.0,91,0.00,,OVC030,0.00,VWS V14.01,2013-05-26 07:08:00,
2013-05-26 02:13:00,51.2,48.7,30.17,SE,124,0.0,9.0,91,0.00,,OVC030,0.00,VWS V14.01,2013-05-26 07:13:00,
2013-05-26 02:18:00,51.2,48.7,30.17,East,89,6.0,9.0,91,0.00,,OVC030,0.00,VWS V14.01,2013-05-26 07:18:00,
2013-05-26 02:23:00,51.2,48.7,30.16,SE,143,7.0,9.0,91,0.00,,OVC030,0.00,VWS V14.01,2013-05-26 07:23:00,
2013-05-26 02:28:00,51.1,48.3,30.15,ESE,107,0.0,13.0,90,0.00,,OVC030,0.00,VWS V14.01,2013-05-26 07:28:00,
2013-05-26 02:33:00,51.2,48.4,30.15,ESE,113,7.0,13.0,90,0.00,,OVC030,0.00,VWS V14.01,2013-05-26 07:33:00,
2013-05-26 02:38:00,51.2,48.4,30.15,ENE,59,8.0,13.0,90,0.00,,OVC030,0.00,VWS V14.01,2013-05-26 07:38:00,
2013-05-26 02:43:00,51.2,48.1,30.15,East,100,10.0,13.0,89,0.00,,OVC030,0.00,VWS V14.01,2013-05-26 07:43:00,
2013-05-26 02:48:00,51.3,48.2,30.15,ESE,109,4.0,13.0,89,0.00,,OVC030,0.00,VWS V14.01,2013-05-26 07:48:00,
2013-05-26 02:53:00,51.3,48.2,30.15,SE,124,0.0,15.0,89,0.00,,OVC030,0.00,VWS V14.01,2013-05-26 07:53:00,
2013-05-26 02:58:00,51.3,48.2,30.15,East,91,3.0,15.0,89,0.00,,OVC030,0.00,VWS V14.01,2013-05-26 07:58:00,
2013-05-26 03:03:00,51.2,48.1,30.14,ESE,109,4.0,9.0,89,0.00,,OVC030,0.00,VWS V14.01,2013-05-26 08:03:00,
2013-05-26 03:08:00,51.2,48.1,30.14,ESE,122,1.0,12.0,89,0.00,,OVC030,0.00,VWS V14.01,2013-05-26 08:08:00,
2013-05-26 03:13:00,51.2,48.1,30.15,SSE,150,1.0,12.0,89,0.00,,OVC030,0.00,VWS V14.01,2013-05-26 08:13:00,
2013-05-26 03:19:00,51.2,48.1,30.15,SE,146,2.0,12.0,89,0.00,,OVC030,0.00,VWS V14.01,2013-05-26 08:19:00,
2013-05-26 03:24:00,51.2,48.1,30.15,ESE,105,4.0,12.0,89,0.00,,OVC030,0.00,VWS V14.01,2013-05-26 08:24:00,
2013-05-26 03:29:00,51.2,48.1,30.14,ESE,104,0.0,12.0,89,0.00,,OVC030,0.00,VWS V14.01,2013-05-26 08:29:00,
2013-05-26 03:34:00,51.1,48.0,30.13,East,88,2.0,14.0,89,0.00,,OVC030,0.00,VWS V14.01,2013-05-26 08:34:00,
2013-05-26 03:39:00,51.0,48.2,30.14,ESE,120,2.0,14.0,90,0.00,,OVC030,0.00,VWS V14.01,2013-05-26 08:39:00,
2013-05-26 03:44:00,51.0,48.2,30.13,NE,38,0.0,14.0,90,0.00,,OVC030,0.00,VWS V14.01,2013-05-26 08:44:00,
2013-05-26 03:49:00,50.8,48.0,30.13,SE,144,7.0,14.0,90,0.00,,OVC030,0.00,VWS V14.01,2013-05-26 08:49:00,
2013-05-26 03:54:00,50.6,48.1,30.13,ESE,105,2.0,14.0,91,0.00,,OVC030,0.00,VWS V14.01,2013-05-26 08:54:00,
2013-05-26 03:59:00,50.6,48.1,30.12,SSE,167,2.0,14.0,91,0.00,,OVC030,0.00,VWS V14.01,2013-05-26 08:59:00,
2013-05-26 04:04:00,50.6,48.1,30.13,SSW,207,0.0,12.0,91,0.00,,OVC030,0.00,VWS V14.01,2013-05-26 09:04:00,
2013-05-26 04:09:00,50.4,48.2,30.13,ESE,105,0.0,12.0,92,0.00,,OVC030,0.00,VWS V14.01,2013-05-26 09:09:00,
2013-05-26 04:14:00,50.3,48.1,30.13,SE,137,0.0,12.0,92,0.01,,OVC030,0.01,VWS V14.01,2013-05-26 09:14:00,
2013-05-26 04:19:00,50.2,48.3,30.14,SSW,199,1.0,12.0,93,0.01,,OVC030,0.01,VWS V14.01,2013-05-26 09:19:00,
2013-05-26 04:24:00,50.1,48.2,30.14,ESE,111,2.0,12.0,93,0.01,,OVC030,0.01,VWS V14.01,2013-05-26 09:24:00,
2013-05-26 04:29:00,50.0,48.1,30.13,SE,144,3.0,12.0,93,0.01,,OVC030,0.01,VWS V14.01,2013-05-26 09:29:00,
2013-05-26 04:34:00,49.9,48.0,30.14,ESE,117,0.0,12.0,93,0.01,,OVC030,0.01,VWS V14.01,2013-05-26 09:34:00,
2013-05-26 04:39:00,50.0,48.3,30.14,SE,130,1.0,12.0,94,0.01,,OVC030,0.01,VWS V14.01,2013-05-26 09:39:00,
2013-05-26 04:44:00,49.9,48.2,30.14,NNE,33,2.0,12.0,94,0.01,,OVC030,0.01,VWS V14.01,2013-05-26 09:44:00,
2013-05-26 04:49:00,50.0,48.3,30.14,East,81,2.0,12.0,94,0.01,,OVC030,0.01,VWS V14.01,2013-05-26 09:49:00,
2013-05-26 04:54:00,49.9,48.2,30.14,East,100,0.0,12.0,94,0.01,,OVC030,0.01,VWS V14.01,2013-05-26 09:54:00,
2013-05-26 04:59:00,50.0,48.3,30.14,ESE,105,2.0,12.0,94,0.01,,OVC030,0.01,VWS V14.01,2013-05-26 09:59:00,
2013-05-26 05:04:00,50.0,48.3,30.13,SE,124,0.0,8.0,94,0.01,,OVC030,0.01,VWS V14.01,2013-05-26 10:04:00,
2013-05-26 05:10:00,49.9,48.2,30.14,ESE,105,0.0,8.0,94,0.01,,OVC030,0.01,VWS V14.01,2013-05-26 10:10:00,
2013-05-26 05:15:00,50.0,48.3,30.12,ESE,103,2.0,11.0,94,0.01,,OVC030,0.01,VWS V14.01,2013-05-26 10:15:00,
2013-05-26 05:20:00,49.9,48.2,30.12,East,94,5.0,11.0,94,0.02,,OVC030,0.02,VWS V14.01,2013-05-26 10:20:00,
2013-05-26 05:25:00,49.7,48.0,30.12,ESE,117,0.0,11.0,94,0.02,,OVC030,0.02,VWS V14.01,2013-05-26 10:25:00,
2013-05-26 05:30:00,49.7,48.3,30.12,NE,49,0.0,11.0,95,0.03,,OVC030,0.03,VWS V14.01,2013-05-26 10:30:00,
2013-05-26 05:35:00,49.6,48.2,30.13,East,87,3.0,11.0,95,0.03,,OVC030,0.03,VWS V14.01,2013-05-26 10:35:00,
2013-05-26 05:40:00,49.6,48.2,30.13,SSE,155,0.0,11.0,95,0.03,,OVC030,0.03,VWS V14.01,2013-05-26 10:40:00,
2013-05-26 05:45:00,49.6,48.2,30.14,East,94,3.0,11.0,95,0.03,,OVC030,0.03,VWS V14.01,2013-05-26 10:45:00,
2013-05-26 05:50:00,49.5,48.1,30.13,East,100,5.0,11.0,95,0.03,,OVC030,0.03,VWS V14.01,2013-05-26 10:50:00,
2013-05-26 05:55:00,49.5,48.1,30.12,ESE,119,2.0,12.0,95,0.03,,OVC030,0.03,VWS V14.01,2013-05-26 10:55:00,
2013-05-26 06:00:00,49.4,48.0,30.12,ENE,69,3.0,12.0,95,0.03,,OVC030,0.03,VWS V14.01,2013-05-26 11:00:00,
2013-05-26 06:05:00,49.5,48.1,30.12,East,94,2.0,10.0,95,0.02,,OVC030,0.03,VWS V14.01,2013-05-26 11:05:00,
2013-05-26 06:10:00,49.4,48.0,30.12,NNW,342,2.0,10.0,95,0.03,,OVC030,0.04,VWS V14.01,2013-05-26 11:10:00,
2013-05-26 06:15:00,49.5,48.1,30.13,SE,124,3.0,11.0,95,0.03,,OVC030,0.04,VWS V14.01,2013-05-26 11:15:00,
2013-05-26 06:20:00,49.4,48.0,30.14,NE,55,1.0,11.0,95,0.03,,OVC030,0.04,VWS V14.01,2013-05-26 11:20:00,
2013-05-26 06:25:00,49.5,48.1,30.14,East,100,9.0,11.0,95,0.03,,OVC030,0.04,VWS V14.01,2013-05-26 11:25:00,
2013-05-26 06:30:00,49.5,48.1,30.14,SE,130,2.0,11.0,95,0.03,,OVC030,0.04,VWS V14.01,2013-05-26 11:30:00,
2013-05-26 06:35:00,49.5,48.1,30.13,ENE,67,2.0,11.0,95,0.03,,OVC030,0.04,VWS V14.01,2013-05-26 11:35:00,
2013-05-26 06:40:00,49.5,48.1,30.13,East,101,2.0,11.0,95,0.04,,OVC030,0.05,VWS V14.01,2013-05-26 11:40:00,
2013-05-26 06:45:00,49.4,48.0,30.13,East,97,2.0,11.0,95,0.04,,OVC030,0.05,VWS V14.01,2013-05-26 11:45:00,
2013-05-26 06:50:00,49.4,48.0,30.14,SE,136,8.0,11.0,95,0.06,,OVC030,0.07,VWS V14.01,2013-05-26 11:50:00,
2013-05-26 06:55:00,49.3,47.9,30.14,NNE,30,0.0,11.0,95,0.06,,OVC030,0.07,VWS V14.01,2013-05-26 11:55:00,
2013-05-26 07:01:00,49.3,48.2,30.14,East,84,0.0,11.0,96,0.07,,OVC030,0.08,VWS V14.01,2013-05-26 12:01:00,
2013-05-26 07:06:00,49.2,48.1,30.15,East,94,1.0,5.0,96,0.06,,OVC030,0.09,VWS V14.01,2013-05-26 12:06:00,
2013-05-26 07:11:00,49.3,48.2,30.16,East,98,5.0,6.0,96,0.07,,OVC030,0.10,VWS V14.01,2013-05-26 12:11:00,
2013-05-26 07:16:00,49.3,48.2,30.15,East,90,5.0,7.0,96,0.07,,OVC030,0.10,VWS V14.01,2013-05-26 12:16:00,
2013-05-26 07:21:00,49.2,48.1,30.14,ESE,106,7.0,11.0,96,0.08,,OVC030,0.11,VWS V14.01,2013-05-26 12:21:00,
2013-05-26 07:26:00,49.2,48.1,30.15,ESE,107,3.0,11.0,96,0.08,,OVC030,0.11,VWS V14.01,2013-05-26 12:26:00,
2013-05-26 07:31:00,49.1,48.0,30.15,South,178,0.0,11.0,96,0.08,,OVC030,0.11,VWS V14.01,2013-05-26 12:31:00,
2013-05-26 07:36:00,49.1,48.0,30.14,NE,53,2.0,11.0,96,0.08,,OVC030,0.11,VWS V14.01,2013-05-26 12:36:00,
2013-05-26 07:41:00,48.8,47.7,30.14,East,79,1.0,11.0,96,0.09,,OVC030,0.12,VWS V14.01,2013-05-26 12:41:00,
2013-05-26 07:46:00,48.9,47.8,30.16,SE,136,3.0,11.0,96,0.09,,OVC030,0.12,VWS V14.01,2013-05-26 12:46:00,
2013-05-26 07:51:00,48.9,47.8,30.15,ESE,103,5.0,11.0,96,0.10,,OVC030,0.13,VWS V14.01,2013-05-26 12:51:00,
2013-05-26 07:56:00,48.8,47.7,30.15,NE,38,2.0,11.0,96,0.10,,OVC030,0.13,VWS V14.01,2013-05-26 12:56:00,
2013-05-26 08:01:00,48.7,47.6,30.16,ESE,111,2.0,2.0,96,0.06,,OVC030,0.14,VWS V14.01,2013-05-26 13:01:00,
2013-05-26 08:06:00,48.7,47.6,30.16,East,95,1.0,8.0,96,0.07,,OVC030,0.15,VWS V14.01,2013-05-26 13:06:00,
2013-05-26 08:11:00,48.6,47.5,30.15,East,91,5.0,8.0,96,0.07,,OVC030,0.15,VWS V14.01,2013-05-26 13:11:00,
2013-05-26 08:16:00,48.6,47.5,30.14,SSE,163,6.0,12.0,96,0.08,,OVC030,0.16,VWS V14.01,2013-05-26 13:16:00,
2013-05-26 08:21:00,48.4,47.3,30.15,SE,129,4.0,12.0,96,0.09,,OVC030,0.17,VWS V14.01,2013-05-26 13:21:00,
2013-05-26 08:26:00,48.4,47.3,30.16,ESE,111,5.0,12.0,96,0.11,,OVC030,0.19,VWS V14.01,2013-05-26 13:26:00,
2013-05-26 08:31:00,48.4,47.3,30.18,East,96,1.0,12.0,96,0.12,,OVC030,0.20,VWS V14.01,2013-05-26 13:31:00,
2013-05-26 08:37:00,48.4,47.3,30.17,East,93,1.0,12.0,96,0.13,,OVC030,0.21,VWS V14.01,2013-05-26 13:37:00,
2013-05-26 08:42:00,48.4,47.3,30.17,ESE,107,0.0,12.0,96,0.14,,OVC030,0.22,VWS V14.01,2013-05-26 13:42:00,
2013-05-26 08:47:00,48.4,47.6,30.17,ESE,103,5.0,12.0,97,0.16,,OVC030,0.24,VWS V14.01,2013-05-26 13:47:00,
2013-05-26 08:52:00,48.5,47.7,30.17,SE,124,2.0,12.0,97,0.16,,OVC030,0.24,VWS V14.01,2013-05-26 13:52:00,
2013-05-26 08:57:00,48.4,47.6,30.18,East,101,0.0,12.0,97,0.18,,OVC030,0.26,VWS V14.01,2013-05-26 13:57:00,
2013-05-26 09:02:00,48.4,47.6,30.19,SE,128,0.0,4.0,97,0.13,,OVC030,0.27,VWS V14.01,2013-05-26 14:02:00,
2013-05-26 09:07:00,48.4,47.6,30.18,ESE,115,1.0,5.0,97,0.15,,OVC030,0.29,VWS V14.01,2013-05-26 14:07:00,
2013-05-26 09:12:00,48.5,47.7,30.18,East,91,0.0,5.0,97,0.17,,OVC030,0.31,VWS V14.01,2013-05-26 14:12:00,
2013-05-26 09:17:00,48.4,47.6,30.18,NE,38,5.0,5.0,97,0.19,,OVC030,0.33,VWS V14.01,2013-05-26 14:17:00,
2013-05-26 09:22:00,48.4,47.6,30.18,SE,132,0.0,5.0,97,0.21,,OVC030,0.35,VWS V14.01,2013-05-26 14:22:00,
2013-05-26 09:27:00,48.5,47.7,30.20,East,90,0.0,6.0,97,0.22,,OVC030,0.36,VWS V14.01,2013-05-26 14:27:00,
2013-05-26 09:32:00,48.5,47.7,30.19,NNE,17,0.0,6.0,97,0.23,,OVC030,0.37,VWS V14.01,2013-05-26 14:32:00,
2013-05-26 09:37:00,48.5,47.7,30.20,ESE,117,0.0,6.0,97,0.25,,OVC030,0.39,VWS V14.01,2013-05-26 14:37:00,
2013-05-26 09:42:00,48.4,47.6,30.19,East,98,1.0,6.0,97,0.27,,OVC030,0.41,VWS V14.01,2013-05-26 14:42:00,
2013-05-26 09:47:00,48.4,47.6,30.16,East,87,2.0,6.0,97,0.29,,OVC030,0.43,VWS V14.01,2013-05-26 14:47:00,
2013-05-26 09:52:00,48.3,47.5,30.18,ESE,118,0.0,6.0,97,0.30,,OVC030,0.44,VWS V14.01,2013-05-26 14:52:00,
2013-05-26 09:57:00,48.3,47.5,30.19,ESE,121,5.0,6.0,97,0.32,,OVC030,0.46,VWS V14.01,2013-05-26 14:57:00,
2013-05-26 10:02:00,48.3,47.5,30.18,ESE,123,0.0,6.0,97,0.21,,OVC030,0.48,VWS V14.01,2013-05-26 15:02:00,
2013-05-26 10:07:00,48.3,47.5,30.17,East,94,1.0,6.0,97,0.22,,OVC030,0.49,VWS V14.01,2013-05-26 15:07:00,
2013-05-26 10:12:00,48.3,47.5,30.16,NE,40,5.0,7.0,97,0.23,,OVC030,0.50,VWS V14.01,2013-05-26 15:12:00,
2013-05-26 10:17:00,48.2,47.4,30.16,East,81,2.0,10.0,97,0.25,,OVC030,0.52,VWS V14.01,2013-05-26 15:17:00,
2013-05-26 10:22:00,48.1,47.3,30.14,ESE,109,4.0,11.0,97,0.26,,OVC030,0.53,VWS V14.01,2013-05-26 15:22:00,
2013-05-26 10:27:00,48.1,47.6,30.15,SSW,203,2.0,12.0,98,0.26,,OVC030,0.53,VWS V14.01,2013-05-26 15:27:00,
2013-05-26 10:32:00,48.2,47.7,30.18,East,91,1.0,12.0,98,0.27,,OVC030,0.54,VWS V14.01,2013-05-26 15:32:00,
2013-05-26 10:37:00,48.3,47.8,30.18,ESE,123,7.0,12.0,98,0.28,,OVC030,0.55,VWS V14.01,2013-05-26 15:37:00,
2013-05-26 10:42:00,48.3,47.8,30.17,ENE,74,1.0,12.0,98,0.28,,OVC030,0.55,VWS V14.01,2013-05-26 15:42:00,
2013-05-26 10:48:00,48.3,47.8,30.18,ESE,107,1.0,12.0,98,0.28,,OVC030,0.55,VWS V14.01,2013-05-26 15:48:00,
2013-05-26 10:53:00,48.3,47.8,30.18,SE,124,0.0,12.0,98,0.29,,OVC030,0.56,VWS V14.01,2013-05-26 15:53:00,
2013-05-26 10:58:00,48.4,47.6,30.18,East,86,0.0,12.0,97,0.29,,OVC030,0.56,VWS V14.01,2013-05-26 15:58:00,
2013-05-26 11:03:00,48.5,48.0,30.18,NNE,17,0.0,2.0,98,0.09,,OVC030,0.56,VWS V14.01,2013-05-26 16:03:00,
2013-05-26 11:08:00,48.4,47.6,30.19,NW,313,2.0,4.0,97,0.10,,OVC030,0.57,VWS V14.01,2013-05-26 16:08:00,
2013-05-26 11:13:00,48.5,48.0,30.19,North,11,1.0,4.0,98,0.10,,OVC030,0.57,VWS V14.01,2013-05-26 16:13:00,
2013-05-26 11:18:00,48.5,47.7,30.19,ENE,61,0.0,4.0,97,0.11,,OVC030,0.58,VWS V14.01,2013-05-26 16:18:00,
2013-05-26 11:23:00,48.5,47.7,30.20,ESE,115,0.0,4.0,97,0.14,,OVC030,0.61,VWS V14.01,2013-05-26 16:23:00,
2013-05-26 11:28:00,48.6,48.1,30.19,ESE,115,0.0,6.0,98,0.17,,OVC030,0.64,VWS V14.01,2013-05-26 16:28:00,
2013-05-26 11:33:00,48.6,48.1,30.18,ESE,112,5.0,7.0,98,0.19,,OVC030,0.66,VWS V14.01,2013-05-26 16:33:00,
2013-05-26 11:38:00,48.6,48.1,30.17,ESE,121,0.0,7.0,98,0.20,,OVC030,0.67,VWS V14.01,2013-05-26 16:38:00,
2013-05-26 11:43:00,48.7,48.2,30.17,SE,130,2.0,8.0,98,0.21,,OVC030,0.68,VWS V14.01,2013-05-26 16:43:00,
2013-05-26 11:48:00,48.7,48.2,30.15,ESE,115,1.0,12.0,98,0.23,,OVC030,0.70,VWS V14.01,2013-05-26 16:48:00,
2013-05-26 11:53:00,48.7,48.2,30.15,ESE,112,12.0,12.0,98,0.24,,OVC030,0.71,VWS V14.01,2013-05-26 16:53:00,
2013-05-26 11:58:00,48.7,48.2,30.14,SSE,149,10.0,12.0,98,0.25,,OVC030,0.72,VWS V14.01,2013-05-26 16:58:00,
2013-05-26 12:03:00,48.7,48.2,30.14,ESE,121,7.0,14.0,98,0.17,,OVC030,0.73,VWS V14.01,2013-05-26 17:03:00,
2013-05-26 12:08:00,48.8,48.3,30.14,SSE,151,4.0,14.0,98,0.19,,OVC030,0.75,VWS V14.01,2013-05-26 17:08:00,
2013-05-26 12:13:00,48.8,48.3,30.12,South,175,4.0,14.0,98,0.20,,OVC030,0.76,VWS V14.01,2013-05-26 17:13:00,
2013-05-26 12:18:00,48.8,48.3,30.08,East,96,13.0,15.0,98,0.21,,OVC030,0.77,VWS V14.01,2013-05-26 17:18:00,
2013-05-26 12:23:00,48.8,48.3,30.02,SE,145,8.0,22.0,98,0.22,,OVC030,0.78,VWS V14.01,2013-05-26 17:23:00,
2013-05-26 12:28:00,48.9,48.4,29.98,ESE,123,8.0,25.0,98,0.23,,OVC030,0.79,VWS V14.01,2013-05-26 17:28:00,
2013-05-26 12:33:00,48.9,48.4,29.97,ESE,105,11.0,25.0,98,0.24,,OVC030,0.80,VWS V14.01,2013-05-26 17:33:00,
2013-05-26 12:39:00,49.0,48.5,29.97,ESE,119,21.0,28.0,98,0.24,,OVC030,0.80,VWS V14.01,2013-05-26 17:39:00,
2013-05-26 12:44:00,49.2,48.7,29.98,ESE,105,8.0,28.0,98,0.24,,OVC030,0.80,VWS V14.01,2013-05-26 17:44:00,
2013-05-26 12:49:00,49.5,49.0,29.97,SE,134,16.0,28.0,98,0.24,,OVC030,0.80,VWS V14.01,2013-05-26 17:49:00,
2013-05-26 12:54:00,49.9,49.4,29.96,SSW,199,8.0,28.0,98,0.24,,OVC030,0.80,VWS V14.01,2013-05-26 17:54:00,
2013-05-26 12:59:00,50.1,49.6,29.96,East,100,17.0,28.0,98,0.24,,OVC030,0.80,VWS V14.01,2013-05-26 17:59:00,
2013-05-26 13:04:00,50.6,50.1,29.97,SSE,155,6.0,16.0,98,0.07,,OVC030,0.80,VWS V14.01,2013-05-26 18:04:00,
2013-05-26 13:09:00,50.9,50.4,29.99,ESE,107,3.0,21.0,98,0.07,,OVC030,0.80,VWS V14.01,2013-05-26 18:09:00,
2013-05-26 13:14:00,51.1,50.6,30.01,SSW,199,3.0,21.0,98,0.07,,OVC030,0.80,VWS V14.01,2013-05-26 18:14:00,
2013-05-26 13:19:00,51.4,50.9,30.05,South,184,4.0,21.0,98,0.07,,OVC030,0.80,VWS V14.01,2013-05-26 18:19:00,
2013-05-26 13:24:00,51.8,51.3,30.04,SSW,204,1.0,21.0,98,0.07,,OVC030,0.80,VWS V14.01,2013-05-26 18:24:00,
2013-05-26 13:29:00,52.3,51.8,30.05,South,169,3.0,21.0,98,0.07,,OVC030,0.80,VWS V14.01,2013-05-26 18:29:00,
2013-05-26 13:34:00,52.6,52.0,30.05,East,96,0.0,21.0,98,0.07,,OVC030,0.80,VWS V14.01,2013-05-26 18:34:00,
2013-05-26 13:39:00,52.8,52.2,30.07,NNE,17,0.0,21.0,98,0.07,,OVC030,0.80,VWS V14.01,2013-05-26 18:39:00,
2013-05-26 13:44:00,53.2,52.7,30.08,SSE,151,0.0,21.0,98,0.07,,OVC030,0.80,VWS V14.01,2013-05-26 18:44:00,
2013-05-26 13:49:00,53.6,53.0,30.08,NNE,29,0.0,21.0,98,0.07,,OVC030,0.80,VWS V14.01,2013-05-26 18:49:00,
2013-05-26 13:54:00,53.9,53.1,30.08,ESE,114,2.0,21.0,97,0.07,,OVC030,0.80,VWS V14.01,2013-05-26 18:54:00,
2013-05-26 13:59:00,54.0,53.2,30.09,SSE,164,4.0,21.0,97,0.07,,OVC030,0.80,VWS V14.01,2013-05-26 18:59:00,
2013-05-26 14:04:00,54.1,53.3,30.09,East,96,0.0,2.0,97,0.00,,OVC030,0.80,VWS V14.01,2013-05-26 19:04:00,
2013-05-26 14:09:00,54.0,52.9,30.09,East,96,0.0,2.0,96,0.00,,OVC030,0.80,VWS V14.01,2013-05-26 19:09:00,
2013-05-26 14:14:00,54.4,53.3,30.10,East,96,0.0,2.0,96,0.00,,OVC030,0.80,VWS V14.01,2013-05-26 19:14:00,
2013-05-26 14:19:00,54.3,53.2,30.10,East,96,1.0,2.0,96,0.00,,OVC030,0.80,VWS V14.01,2013-05-26 19:19:00,
2013-05-26 14:24:00,54.5,53.4,30.11,NNW,348,0.0,4.0,96,0.00,,OVC030,0.80,VWS V14.01,2013-05-26 19:24:00,
2013-05-26 14:29:00,54.2,53.1,30.11,NNE,27,2.0,4.0,96,0.00,,OVC030,0.80,VWS V14.01,2013-05-26 19:29:00,
2013-05-26 14:34:00,54.2,53.1,30.11,ENE,61,0.0,4.0,96,0.00,,OVC030,0.80,VWS V14.01,2013-05-26 19:34:00,
2013-05-26 14:39:00,54.1,53.0,30.10,NE,53,0.0,4.0,96,0.00,,OVC030,0.80,VWS V14.01,2013-05-26 19:39:00,
2013-05-26 14:44:00,54.0,52.9,30.10,NE,52,0.0,4.0,96,0.00,,OVC030,0.80,VWS V14.01,2013-05-26 19:44:00,
2013-05-26 14:49:00,54.1,53.0,30.11,East,99,0.0,4.0,96,0.00,,OVC030,0.80,VWS V14.01,2013-05-26 19:49:00,
2013-05-26 14:54:00,54.2,53.1,30.11,ENE,75,0.0,4.0,96,0.00,,OVC030,0.80,VWS V14.01,2013-05-26 19:54:00,
2013-05-26 15:00:00,54.2,52.8,30.11,NNW,337,0.0,4.0,95,0.00,,OVC030,0.80,VWS V14.01,2013-05-26 20:00:00,
2013-05-26 15:05:00,54.1,52.7,30.10,ESE,106,0.0,4.0,95,0.00,,OVC030,0.80,VWS V14.01,2013-05-26 20:05:00,
2013-05-26 15:10:00,54.1,52.7,30.10,ENE,64,0.0,4.0,95,0.00,,OVC030,0.80,VWS V14.01,2013-05-26 20:10:00,
2013-05-26 15:15:00,54.2,52.8,30.09,SE,136,1.0,4.0,95,0.00,,OVC030,0.80,VWS V14.01,2013-05-26 20:15:00,
2013-05-26 15:20:00,53.9,52.5,30.10,SSE,153,2.0,4.0,95,0.00,,OVC030,0.80,VWS V14.01,2013-05-26 20:20:00,
2013-05-26 15:25:00,53.8,52.4,30.10,ESE,109,2.0,5.0,95,0.00,,OVC030,0.80,VWS V14.01,2013-05-26 20:25:00,
2013-05-26 15:30:00,53.9,52.5,30.10,ESE,107,0.0,5.0,95,0.00,,OVC030,0.80,VWS V14.01,2013-05-26 20:30:00,
2013-05-26 15:35:00,53.8,52.4,30.10,NNE,28,2.0,5.0,95,0.00,,OVC030,0.80,VWS V14.01,2013-05-26 20:35:00,
2013-05-26 15:40:00,53.6,52.2,30.09,East,83,0.0,5.0,95,0.00,,OVC030,0.80,VWS V14.01,2013-05-26 20:40:00,
2013-05-26 15:45:00,53.6,52.2,30.09,ESE,106,0.0,5.0,95,0.00,,OVC030,0.80,VWS V14.01,2013-05-26 20:45:00,
2013-05-26 15:50:00,53.5,52.1,30.08,SE,131,1.0,5.0,95,0.00,,OVC030,0.80,VWS V14.01,2013-05-26 20:50:00,
2013-05-26 15:55:00,53.6,52.2,30.08,ENE,68,0.0,6.0,95,0.00,,OVC030,0.80,VWS V14.01,2013-05-26 20:55:00,
2013-05-26 16:00:00,53.7,52.6,30.08,NE,38,0.0,6.0,96,0.00,,OVC030,0.80,VWS V14.01,2013-05-26 21:00:00,
2013-05-26 16:05:00,53.7,52.6,30.09,NE,53,0.0,4.0,96,0.00,,OVC030,0.80,VWS V14.01,2013-05-26 21:05:00,
2013-05-26 16:10:00,53.7,52.6,30.09,SE,128,0.0,4.0,96,0.00,,OVC030,0.80,VWS V14.01,2013-05-26 21:10:00,
2013-05-26 16:15:00,53.7,52.6,30.08,NE,51,1.0,5.0,96,0.00,,OVC030,0.80,VWS V14.01,2013-05-26 21:15:00,
2013-05-26 16:20:00,53.7,52.6,30.08,ENE,76,0.0,5.0,96,0.00,,OVC030,0.80,VWS V14.01,2013-05-26 21:20:00,
2013-05-26 16:25:00,53.7,52.6,30.08,ESE,111,0.0,7.0,96,0.00,,OVC030,0.80,VWS V14.01,2013-05-26 21:25:00,
2013-05-26 16:30:00,53.6,52.5,30.10,ESE,111,0.0,7.0,96,0.00,,OVC030,0.80,VWS V14.01,2013-05-26 21:30:00,
2013-05-26 16:35:00,53.6,52.5,30.11,SSW,213,0.0,7.0,96,0.01,,OVC030,0.81,VWS V14.01,2013-05-26 21:35:00,
2013-05-26 16:40:00,53.6,52.5,30.10,SSW,213,0.0,7.0,96,0.01,,OVC030,0.81,VWS V14.01,2013-05-26 21:40:00,
2013-05-26 16:45:00,53.5,52.4,30.09,SSW,213,0.0,7.0,96,0.04,,OVC030,0.84,VWS V14.01,2013-05-26 21:45:00,
2013-05-26 16:50:00,53.3,52.2,30.06,East,98,2.0,7.0,96,0.07,,OVC030,0.87,VWS V14.01,2013-05-26 21:50:00,
2013-05-26 16:55:00,53.2,52.4,30.03,SE,126,3.0,8.0,97,0.08,,OVC030,0.88,VWS V14.01,2013-05-26 21:55:00,
2013-05-26 17:00:00,53.0,52.2,30.02,East,96,1.0,8.0,97,0.09,,OVC030,0.89,VWS V14.01,2013-05-26 22:00:00,
2013-05-26 17:05:00,52.9,52.1,30.00,East,92,2.0,14.0,97,0.09,,OVC030,0.89,VWS V14.01,2013-05-26 22:05:00,
2013-05-26 17:10:00,52.9,52.1,29.97,NE,39,6.0,14.0,97,0.10,,OVC030,0.90,VWS V14.01,2013-05-26 22:10:00,
2013-05-26 17:16:00,53.0,52.2,29.98,SSE,149,0.0,14.0,97,0.10,,OVC030,0.90,VWS V14.01,2013-05-26 22:16:00,
2013-05-26 17:21:00,53.1,52.3,29.98,North,11,4.0,14.0,97,0.10,,OVC030,0.90,VWS V14.01,2013-05-26 22:21:00,
2013-05-26 17:26:00,53.3,52.5,29.98,NE,55,2.0,14.0,97,0.10,,OVC030,0.90,VWS V14.01,2013-05-26 22:26:00,
2013-05-26 17:31:00,53.4,52.8,29.98,SE,132,3.0,16.0,98,0.10,,OVC030,0.90,VWS V14.01,2013-05-26 22:31:00,
2013-05-26 17:36:00,53.6,53.0,30.00,East,80,1.0,16.0,98,0.10,,OVC030,0.90,VWS V14.01,2013-05-26 22:36:00,
2013-05-26 17:41:00,53.7,53.2,30.02,ENE,76,3.0,16.0,98,0.10,,OVC030,0.90,VWS V14.01,2013-05-26 22:41:00,
2013-05-26 17:46:00,53.9,53.3,30.03,SE,144,0.0,16.0,98,0.10,,OVC030,0.90,VWS V14.01,2013-05-26 22:46:00,
2013-05-26 17:51:00,53.9,53.3,30.02,East,91,6.0,16.0,98,0.10,,OVC030,0.90,VWS V14.01,2013-05-26 22:51:00,
2013-05-26 17:56:00,53.9,53.1,30.03,SE,138,1.0,16.0,97,0.10,,OVC030,0.90,VWS V14.01,2013-05-26 22:56:00,
2013-05-26 18:01:00,54.0,53.5,30.03,SE,140,2.0,2.0,98,0.01,,OVC030,0.90,VWS V14.01,2013-05-26 23:01:00,
2013-05-26 18:06:00,54.1,53.5,30.03,SE,145,5.0,7.0,98,0.01,,OVC030,0.90,VWS V14.01,2013-05-26 23:06:00,
2013-05-26 18:11:00,54.2,53.7,30.03,ESE,122,0.0,9.0,98,0.01,,OVC030,0.90,VWS V14.01,2013-05-26 23:11:00,
2013-05-26 18:16:00,54.2,53.7,30.03,SE,137,2.0,9.0,98,0.01,,OVC030,0.90,VWS V14.01,2013-05-26 23:16:00,
2013-05-26 18:21:00,54.2,53.7,30.02,SE,127,3.0,9.0,98,0.01,,OVC030,0.90,VWS V14.01,2013-05-26 23:21:00,
2013-05-26 18:26:00,54.2,53.7,30.03,East,90,7.0,9.0,98,0.01,,OVC030,0.90,VWS V14.01,2013-05-26 23:26:00,
2013-05-26 18:31:00,54.2,53.7,30.02,ESE,118,4.0,9.0,98,0.01,,OVC030,0.90,VWS V14.01,2013-05-26 23:31:00,
2013-05-26 18:36:00,54.2,53.7,30.03,SSE,163,4.0,10.0,98,0.01,,OVC030,0.90,VWS V14.01,2013-05-26 23:36:00,
2013-05-26 18:41:00,54.2,53.7,30.03,WNW,300,1.0,10.0,98,0.01,,OVC030,0.90,VWS V14.01,2013-05-26 23:41:00,
2013-05-26 18:46:00,54.1,53.5,30.03,ESE,109,3.0,10.0,98,0.01,,OVC030,0.90,VWS V14.01,2013-05-26 23:46:00,
2013-05-26 18:51:00,54.1,53.5,30.03,ESE,112,2.0,10.0,98,0.01,,OVC030,0.90,VWS V14.01,2013-05-26 23:51:00,
2013-05-26 18:56:00,54.2,53.7,30.03,ESE,115,1.0,10.0,98,0.01,,OVC030,0.90,VWS V14.01,2013-05-26 23:56:00,
2013-05-26 19:01:00,54.2,53.7,30.03,ESE,117,3.0,6.0,98,0.00,,OVC030,0.90,VWS V14.01,2013-05-27 00:01:00,
2013-05-26 19:06:00,54.2,53.7,30.03,East,96,0.0,7.0,98,0.00,,OVC030,0.90,VWS V14.01,2013-05-27 00:06:00,
2013-05-26 19:11:00,54.2,53.7,30.03,ESE,111,2.0,7.0,98,0.00,,OVC030,0.90,VWS V14.01,2013-05-27 00:11:00,
2013-05-26 19:17:00,54.2,53.7,30.03,ESE,103,1.0,9.0,98,0.00,,OVC030,0.90,VWS V14.01,2013-05-27 00:17:00,
2013-05-26 19:22:00,54.2,53.7,30.02,NE,56,3.0,9.0,98,0.00,,OVC030,0.90,VWS V14.01,2013-05-27 00:22:00,
2013-05-26 19:27:00,54.1,53.5,30.02,ESE,116,5.0,9.0,98,0.00,,OVC030,0.90,VWS V14.01,2013-05-27 00:27:00,
2013-05-26 19:32:00,54.2,53.7,30.02,ESE,117,0.0,11.0,98,0.00,,OVC030,0.90,VWS V14.01,2013-05-27 00:32:00,
2013-05-26 19:37:00,54.2,53.7,30.02,East,92,5.0,11.0,98,0.00,,OVC030,0.90,VWS V14.01,2013-05-27 00:37:00,
2013-05-26 19:42:00,54.3,53.8,30.02,East,82,2.0,15.0,98,0.00,,OVC030,0.90,VWS V14.01,2013-05-27 00:42:00,
2013-05-26 19:47:00,54.3,53.5,30.03,East,87,8.0,16.0,97,0.00,,OVC030,0.90,VWS V14.01,2013-05-27 00:47:00,
2013-05-26 19:52:00,54.3,53.5,30.02,SSE,152,3.0,16.0,97,0.00,,OVC030,0.90,VWS V14.01,2013-05-27 00:52:00,
2013-05-26 19:57:00,54.3,53.5,30.02,East,81,3.0,16.0,97,0.00,,OVC030,0.90,VWS V14.01,2013-05-27 00:57:00,
2013-05-26 20:02:00,54.3,53.5,30.02,ENE,65,0.0,10.0,97,0.00,,OVC030,0.90,VWS V14.01,2013-05-27 01:02:00,
2013-05-26 20:07:00,54.3,53.5,30.02,ENE,76,3.0,11.0,97,0.00,,OVC030,0.90,VWS V14.01,2013-05-27 01:07:00,
2013-05-26 20:12:00,54.3,53.5,30.02,ESE,120,2.0,11.0,97,0.00,,OVC030,0.90,VWS V14.01,2013-05-27 01:12:00,
2013-05-26 20:17:00,54.3,53.5,30.01,East,83,1.0,11.0,97,0.00,,OVC030,0.90,VWS V14.01,2013-05-27 01:17:00,
2013-05-26 20:22:00,54.3,53.5,30.01,NNW,332,2.0,11.0,97,0.00,,OVC030,0.90,VWS V14.01,2013-05-27 01:22:00,
2013-05-26 20:27:00,54.3,53.5,30.00,SE,137,3.0,11.0,97,0.00,,OVC030,0.90,VWS V14.01,2013-05-27 01:27:00,
2013-05-26 20:32:00,54.4,53.6,30.00,East,84,8.0,11.0,97,0.00,,OVC030,0.90,VWS V14.01,2013-05-27 01:32:00,
2013-05-26 20:37:00,54.4,53.6,29.99,SE,131,1.0,12.0,97,0.00,,OVC030,0.90,VWS V14.01,2013-05-27 01:37:00,
2013-05-26 20:42:00,54.3,53.5,29.98,SE,125,4.0,12.0,97,0.00,,OVC030,0.90,VWS V14.01,2013-05-27 01:42:00,
2013-05-26 20:47:00,54.4,53.6,29.98,East,86,2.0,14.0,97,0.00,,OVC030,0.90,VWS V14.01,2013-05-27 01:47:00,
2013-05-26 20:52:00,54.5,53.7,29.99,NE,50,4.0,14.0,97,0.00,,OVC030,0.90,VWS V14.01,2013-05-27 01:52:00,
2013-05-26 20:57:00,54.6,54.0,29.99,East,82,1.0,14.0,98,0.00,,OVC030,0.90,VWS V14.01,2013-05-27 01:57:00,
2013-05-26 21:02:00,54.6,53.8,29.99,SE,134,4.0,5.0,97,0.00,,OVC030,0.90,VWS V14.01,2013-05-27 02:02:00,
2013-05-26 21:07:00,54.7,53.9,30.00,SE,129,6.0,8.0,97,0.00,,OVC030,0.90,VWS V14.01,2013-05-27 02:07:00,
2013-05-26 21:12:00,54.8,54.0,30.01,ESE,121,7.0,10.0,97,0.00,,OVC030,0.90,VWS V14.01,2013-05-27 02:12:00,
2013-05-26 21:18:00,54.8,54.0,30.02,ESE,119,2.0,10.0,97,0.00,,OVC030,0.90,VWS V14.01,2013-05-27 02:18:00,
2013-05-26 21:23:00,54.9,54.1,30.02,NE,36,2.0,10.0,97,0.00,,OVC030,0.90,VWS V14.01,2013-05-27 02:23:00,
2013-05-26 21:28:00,55.0,54.2,30.03,ESE,111,5.0,10.0,97,0.00,,OVC030,0.90,VWS V14.01,2013-05-27 02:28:00,
2013-05-26 21:33:00,55.0,54.2,30.03,SE,145,0.0,10.0,97,0.00,,OVC030,0.90,VWS V14.01,2013-05-27 02:33:00,
2013-05-26 21:38:00,55.1,54.3,30.03,East,93,1.0,10.0,97,0.00,,OVC030,0.90,VWS V14.01,2013-05-27 02:38:00,
2013-05-26 21:43:00,55.1,54.3,30.03,East,100,0.0,10.0,97,0.00,,OVC030,0.90,VWS V14.01,2013-05-27 02:43:00,
2013-05-26 21:48:00,55.1,54.3,30.03,SE,140,0.0,10.0,97,0.00,,OVC030,0.90,VWS V14.01,2013-05-27 02:48:00,
2013-05-26 21:53:00,55.1,54.3,30.03,ESE,111,5.0,10.0,97,0.00,,OVC030,0.90,VWS V14.01,2013-05-27 02:53:00,
2013-05-26 21:58:00,55.1,54.3,30.03,East,92,1.0,10.0,97,0.00,,OVC030,0.90,VWS V14.01,2013-05-27 02:58:00,
2013-05-26 22:03:00,55.2,54.4,30.03,ENE,78,0.0,7.0,97,0.00,,OVC030,0.90,VWS V14.01,2013-05-27 03:03:00,
2013-05-26 22:08:00,55.2,54.4,30.03,ESE,109,0.0,7.0,97,0.00,,OVC030,0.90,VWS V14.01,2013-05-27 03:08:00,
2013-05-26 22:13:00,55.2,54.4,30.04,NE,45,0.0,7.0,97,0.00,,OVC030,0.90,VWS V14.01,2013-05-27 03:13:00,
2013-05-26 22:18:00,55.2,54.4,30.03,East,87,0.0,7.0,97,0.00,,OVC030,0.90,VWS V14.01,2013-05-27 03:18:00,
2013-05-26 22:23:00,55.2,54.4,30.03,NE,40,4.0,7.0,97,0.00,,OVC030,0.90,VWS V14.01,2013-05-27 03:23:00,
2013-05-26 22:28:00,55.2,54.4,30.04,ENE,74,3.0,8.0,97,0.00,,OVC030,0.90,VWS V14.01,2013-05-27 03:28:00,
2013-05-26 22:33:00,55.2,54.4,30.04,SE,124,0.0,8.0,97,0.00,,OVC030,0.90,VWS V14.01,2013-05-27 03:33:00,
2013-05-26 22:38:00,55.3,54.5,30.04,ESE,105,2.0,8.0,97,0.00,,OVC030,0.90,VWS V14.01,2013-05-27 03:38:00,
2013-05-26 22:43:00,55.3,54.8,30.03,ESE,123,0.0,8.0,98,0.00,,OVC030,0.90,VWS V14.01,2013-05-27 03:43:00,
2013-05-26 22:48:00,55.3,54.8,30.03,SE,140,0.0,8.0,98,0.00,,OVC030,0.90,VWS V14.01,2013-05-27 03:48:00,
2013-05-26 22:53:00,55.3,54.8,30.02,ENE,57,8.0,8.0,98,0.00,,OVC030,0.90,VWS V14.01,2013-05-27 03:53:00,
2013-05-26 22:58:00,55.3,54.8,30.02,East,94,2.0,8.0,98,0.00,,OVC030,0.90,VWS V14.01,2013-05-27 03:58:00,
2013-05-26 23:01:00,55.4,54.8,30.02,ESE,119,4.0,5.0,98,0.00,,OVC030,0.90,VWS V14.01,2013-05-27 04:01:00,
2013-05-26 23:02:00,55.4,54.8,30.01,NE,51,4.0,5.0,98,0.00,,OVC030,0.90,VWS V14.01,2013-05-27 04:02:00,
2013-05-26 23:07:00,55.4,54.8,30.01,ESE,102,0.0,8.0,98,0.00,,OVC030,0.90,VWS V14.01,2013-05-27 04:07:00,
2013-05-26 23:12:00,55.4,54.8,30.00,SE,146,3.0,8.0,98,0.00,,OVC030,0.90,VWS V14.01,2013-05-27 04:12:00,
2013-05-26 23:17:00,55.4,54.8,29.99,ENE,61,1.0,9.0,98,0.00,,OVC030,0.90,VWS V14.01,2013-05-27 04:17:00,
2013-05-26 23:22:00,55.5,55.0,29.99,ENE,71,0.0,9.0,98,0.00,,OVC030,0.90,VWS V14.01,2013-05-27 04:22:00,
2013-05-26 23:27:00,55.5,55.0,29.99,East,98,1.0,9.0,98,0.00,,OVC030,0.90,VWS V14.01,2013-05-27 04:27:00,
2013-05-26 23:32:00,55.5,54.7,29.99,SSE,153,2.0,10.0,97,0.00,,OVC030,0.90,VWS V14.01,2013-05-27 04:32:00,
2013-05-26 23:37:00,55.5,54.7,30.00,ESE,107,0.0,10.0,97,0.00,,OVC030,0.90,VWS V14.01,2013-05-27 04:37:00,
2013-05-26 23:42:00,55.5,54.7,30.00,SSE,152,6.0,10.0,97,0.00,,OVC030,0.90,VWS V14.01,2013-05-27 04:42:00,
2013-05-26 23:47:00,55.6,54.8,30.00,NNE,28,1.0,12.0,97,0.00,,OVC030,0.90,VWS V14.01,2013-05-27 04:47:00,
2013-05-26 23:52:00,55.6,54.8,30.01,NW,316,3.0,12.0,97,0.00,,OVC030,0.90,VWS V14.01,2013-05-27 04:52:00,
2013-05-26 23:57:00,55.7,54.9,30.01,SE,127,4.0,12.0,97,0.00,,OVC030,0.90,VWS V14.01,2013-05-27 04:57:00,